Theta_e
328 327 327 326 325 324 323 321 319 317 316 316 314 312 312 309 305 303 302 300 299 298 297 296 296 295 295 294 294 294 294 293 293 293 293 293 295 298 305 311 316 318 320 323 324 325 325 326 328 328 327 326 326 326 326 325 324 324 324 323 323 322 321 320 319 319 319 319 319 319 319 319 319 319 319 320 321 321 321 321 322 322 323 323 323
327 327 327 325 324 322 321 320 319 318 317 314 313 311 309 306 303 302 301 299 298 297 296 295 295 295 294 293 293 292 293 292 292 292 292 293 293 294 298 304 309 315 316 318 320 321 323 324 325 326 326 325 324 324 324 324 323 322 323 323 322 321 320 319 319 319 318 318 317 317 317 318 318 318 318 318 318 319 319 320 320 320 321 321 321
327 325 324 323 322 320 319 318 316 316 315 312 312 309 307 304 302 301 299 298 297 297 295 294 294 293 293 293 292 292 292 292 291 292 291 292 292 292 293 297 302 307 312 315 317 319 320 322 321 323 323 324 324 323 322 322 322 322 321 322 321 320 319 318 317 316 316 315 315 315 315 316 316 316 317 317 317 317 317 318 318 319 319 319 319
326 324 323 322 320 319 318 316 313 313 311 310 308 306 304 303 302 301 299 298 296 295 295 293 292 292 293 292 292 291 291 291 291 290 291 291 291 291 292 292 295 300 305 311 315 316 317 317 318 319 320 322 321 321 320 320 321 321 320 319 318 318 317 316 315 314 314 314 313 313 314 314 315 315 315 315 315 316 316 316 316 317 317 318 318
323 323 321 321 319 318 315 312 311 310 310 308 306 304 303 301 300 300 298 296 295 294 294 293 292 292 292 291 291 291 291 291 290 290 290 290 290 290 291 291 292 293 296 302 308 312 314 315 314 316 318 319 319 320 319 318 319 319 318 317 317 317 317 314 313 312 313 312 312 312 313 313 314 314 314 314 314 314 314 314 315 315 316 316 317
319 318 319 319 316 313 311 310 309 308 307 306 304 303 301 300 299 298 296 295 293 293 292 291 291 291 290 291 290 290 290 289 289 289 289 289 289 290 290 290 290 290 291 294 300 305 310 312 312 313 314 315 317 318 319 319 317 317 317 317 316 316 315 314 314 313 313 312 312 312 311 312 312 312 313 313 313 313 313 313 313 314 314 314 315
318 317 315 315 313 311 308 308 308 308 306 305 304 303 301 299 298 295 295 294 292 292 291 290 290 290 290 290 289 289 289 289 289 289 288 289 289 289 289 289 289 290 290 290 292 298 303 307 310 311 311 312 313 314 315 317 317 316 316 317 316 314 314 313 312 311 313 312 312 311 311 311 311 312 312 312 312 312 312 312 313 313 313 313 313
316 315 313 311 309 306 305 305 305 305 305 304 302 300 299 298 297 296 293 292 291 290 291 290 290 289 289 289 289 289 288 288 288 288 288 288 288 288 288 288 289 288 289 289 289 292 298 300 304 306 308 308 310 311 313 313 314 315 315 315 315 313 312 311 311 311 311 309 309 309 309 310 310 311 311 311 311 311 311 311 311 311 311 311 312
311 311 309 307 304 303 303 303 303 303 303 302 301 300 298 297 296 296 294 291 290 290 290 290 289 288 289 288 288 288 287 288 288 288 289 288 287 287 287 287 288 287 287 287 288 289 291 295 297 300 302 304 306 308 309 311 311 313 314 313 313 313 311 311 310 309 308 308 308 308 308 308 309 309 310 310 310 310 310 311 310 311 311 311 311
307 307 306 304 303 302 301 301 301 301 300 300 299 299 298 297 295 294 293 291 290 290 289 289 289 289 288 288 288 287 287 287 287 288 287 287 287 286 286 286 287 287 287 287 288 288 288 289 291 292 295 299 302 304 306 307 309 310 312 313 312 312 310 309 309 308 308 308 308 308 308 309 309 309 310 309 310 310 310 310 310 311 311 311 312
304 303 303 302 300 299 299 299 301 300 300 298 297 297 297 296 294 293 294 293 291 290 289 289 289 288 287 287 287 287 287 287 287 287 286 287 287 287 287 286 286 286 286 287 287 287 287 288 288 288 288 294 298 300 302 304 305 307 309 310 310 309 309 308 308 307 307 307 307 307 307 307 308 308 309 309 309 309 310 309 309 310 310 310 311
303 302 301 300 299 298 297 297 298 299 298 297 296 296 295 294 294 293 291 291 291 290 290 289 289 288 288 288 288 288 287 287 287 286 286 286 286 286 285 286 285 285 285 286 286 287 287 287 287 287 287 288 292 295 297 298 300 304 306 308 309 308 308 307 307 307 306 305 306 306 306 307 306 307 308 308 308 309 309 309 309 309 309 309 310
300 300 298 298 297 297 297 298 297 298 298 298 297 296 296 295 293 293 291 289 289 290 290 291 288 286 289 289 288 289 288 287 286 286 285 285 286 285 286 285 285 285 285 286 286 286 286 286 286 286 286 286 286 288 291 294 295 300 304 305 307 307 307 307 307 306 305 305 305 305 306 306 306 307 307 307 307 308 308 308 309 309 309 309 310
298 297 296 296 295 295 296 296 297 296 297 297 296 295 295 294 293 290 292 290 289 290 290 292 290 287 286 286 288 290 291 288 287 286 286 285 285 285 285 285 284 284 285 285 285 285 285 285 286 285 285 285 285 285 287 288 291 296 300 302 305 306 306 307 306 306 304 305 305 305 305 305 305 306 306 306 306 306 307 307 308 308 308 309 309
296 295 294 295 294 294 293 294 294 295 295 295 295 294 294 293 293 291 289 289 288 288 289 289 290 289 290 288 286 287 288 288 289 287 286 285 285 285 284 284 284 284 285 285 285 284 284 285 284 284 284 284 284 284 286 287 288 291 294 297 298 304 304 306 306 305 304 304 304 304 304 304 304 305 305 305 305 306 306 306 306 306 307 307 308
295 294 294 293 293 292 293 294 294 295 295 294 294 293 294 294 293 292 291 289 289 288 287 286 291 290 288 290 287 289 284 283 285 286 286 285 284 284 284 283 284 285 285 284 284 284 284 284 283 283 283 283 283 283 284 286 286 288 290 292 295 299 300 304 305 305 304 304 303 304 303 303 303 304 304 304 305 305 305 305 305 305 306 306 307
293 293 291 291 292 292 292 292 293 293 294 294 293 293 294 294 293 292 293 291 287 286 286 286 287 285 292 287 287 287 287 285 285 284 286 286 285 284 285 283 284 284 283 283 283 284 283 283 283 283 283 283 283 283 283 284 285 287 288 291 294 295 296 301 303 303 303 303 303 302 303 303 303 303 303 304 304 304 304 304 304 304 305 305 306
291 291 291 290 290 291 291 291 291 291 293 292 291 290 291 292 293 294 292 293 290 286 285 284 284 285 285 286 288 287 285 284 285 283 284 285 284 284 283 283 283 283 283 283 283 283 283 283 283 282 282 282 282 282 282 282 284 285 288 290 295 296 295 296 300 301 301 302 302 302 302 302 302 302 302 302 303 303 303 303 304 304 304 304 305
289 289 289 289 288 289 290 290 290 289 289 289 289 290 290 290 288 291 291 289 290 288 286 284 285 284 284 284 284 283 288 286 283 283 281 283 285 285 284 284 284 284 283 283 283 283 283 283 282 282 282 282 282 281 281 282 283 285 289 291 295 295 294 294 294 296 297 299 301 301 302 301 301 301 301 301 302 302 302 303 303 303 303 304 304
288 287 288 287 287 287 288 288 288 288 288 289 288 287 287 287 287 288 288 289 291 287 285 285 286 283 284 284 283 284 284 285 287 286 285 281 282 284 284 284 284 283 283 282 282 282 282 282 282 282 281 281 281 281 281 281 282 284 285 290 294 294 294 293 293 293 294 296 299 300 300 301 300 300 300 300 301 301 302 302 302 302 303 303 304
286 286 287 287 287 287 287 287 287 287 287 287 286 286 287 286 286 287 287 286 288 287 286 285 285 283 283 282 284 283 283 283 283 286 284 283 282 283 283 284 283 283 282 283 282 282 282 282 281 281 281 280 280 280 280 280 281 284 286 288 292 293 293 292 292 292 292 293 295 296 298 299 299 300 299 300 300 301 301 301 302 302 302 302 303
285 286 286 286 286 286 287 287 286 286 286 286 285 286 286 287 287 286 286 286 285 286 286 284 285 284 285 285 284 283 285 285 284 283 283 284 282 282 282 281 281 282 283 283 282 281 281 281 280 280 280 280 280 280 280 280 281 284 284 285 288 290 291 291 292 292 292 293 292 293 295 296 298 299 299 300 300 300 301 301 301 301 301 302 302
285 285 285 285 285 285 286 286 286 286 285 285 285 285 285 285 285 285 285 285 284 285 284 284 284 284 283 284 285 286 285 282 283 283 283 281 280 280 280 281 281 281 282 282 282 281 280 280 280 280 280 280 280 280 280 279 280 283 283 282 285 286 288 291 291 291 291 292 292 292 293 293 294 295 297 299 299 300 300 300 300 300 300 301 301
284 284 284 284 285 285 285 285 285 285 285 285 285 285 284 285 285 285 285 285 284 284 283 283 283 284 284 284 284 285 284 285 284 284 283 282 282 280 280 280 279 281 282 281 281 281 280 279 279 279 279 279 279 279 279 279 279 282 282 280 283 285 287 289 290 291 291 291 291 291 292 292 292 293 294 296 298 299 300 300 299 299 300 300 300
283 284 284 284 284 284 284 284 284 284 284 284 284 284 284 284 284 284 284 284 284 284 283 283 284 284 283 283 283 284 284 284 284 283 283 283 282 280 280 280 279 280 281 280 280 280 280 279 279 279 278 278 279 279 279 279 279 282 281 279 281 282 283 286 288 289 290 290 290 290 291 291 292 293 294 295 296 298 298 298 299 299 300 300 299
284 284 284 284 284 285 285 285 284 284 284 284 284 284 284 284 284 284 284 283 284 284 284 283 283 283 283 282 283 283 283 283 283 282 282 281 280 279 278 278 278 279 280 280 280 278 279 278 278 279 279 278 278 279 279 278 279 281 281 279 279 281 282 284 287 289 289 289 289 289 289 289 291 292 292 294 295 296 297 298 298 298 297 298 299
285 285 284 284 284 284 284 284 283 283 283 283 284 283 284 283 283 283 282 282 283 282 282 282 281 281 282 282 282 282 282 282 282 282 282 283 282 280 279 278 277 278 277 279 279 279 279 278 277 278 278 278 278 278 279 278 278 280 279 278 278 279 281 284 287 288 288 288 288 289 289 289 290 291 291 291 292 293 295 296 297 297 297 297 296
284 283 283 283 283 283 283 283 283 283 283 283 283 283 283 282 282 282 281 282 282 282 281 282 281 281 281 281 281 281 281 281 282 281 281 282 282 281 280 279 278 277 277 277 278 278 280 278 278 278 277 278 278 278 278 278 278 280 279 278 278 278 280 284 286 287 288 287 287 288 288 288 288 289 289 290 290 291 291 292 292 292 292 292 292
283 283 283 283 283 283 282 282 282 282 282 282 282 282 282 282 281 281 281 281 281 281 281 281 281 281 281 281 281 280 280 281 281 281 281 281 281 280 281 280 280 278 277 276 277 277 277 278 278 278 278 278 278 279 278 278 278 278 278 278 278 278 279 283 285 286 287 287 287 287 287 288 288 289 289 289 290 290 291 291 291 291 292 291 292
283 283 282 282 282 282 282 282 282 282 282 281 282 281 282 281 281 281 281 281 280 280 280 280 279 280 279 280 280 280 280 280 280 280 279 280 279 280 280 280 280 278 278 276 276 278 277 278 278 277 278 277 278 278 278 277 278 278 278 277 277 277 280 281 282 284 284 286 286 287 288 288 288 288 288 289 289 290 290 290 290 290 291 291 292
282 282 282 282 282 282 282 281 281 281 281 281 281 281 281 280 280 280 280 280 280 279 279 279 279 279 279 278 279 279 279 279 278 278 278 278 279 279 279 280 279 279 278 277 275 277 277 277 277 277 276 277 277 277 277 277 277 277 277 277 277 279 280 279 280 281 282 284 284 285 287 287 288 288 288 288 289 290 290 290 289 290 290 290 291
282 282 282 282 282 281 281 281 281 280 280 280 280 280 280 280 280 279 279 279 279 279 278 279 278 278 278 278 278 278 278 278 278 277 277 278 278 278 278 278 278 278 278 277 275 276 278 276 277 277 277 276 277 276 276 277 277 277 277 277 277 278 278 278 278 279 281 282 284 285 286 287 287 287 287 287 288 288 289 289 289 289 289 289 290
282 281 281 281 281 281 280 280 280 280 279 279 280 280 280 279 279 279 278 278 278 278 278 277 277 277 278 277 277 277 277 277 277 277 277 277 277 277 277 277 277 277 277 276 275 275 276 277 276 276 277 276 275 276 275 276 276 276 277 277 277 277 277 278 278 278 280 281 283 285 285 286 287 287 287 286 286 287 287 289 289 288 288 289 289
282 281 281 281 281 280 280 280 280 279 279 279 279 279 279 278 278 278 278 278 278 277 277 277 277 277 277 277 276 276 277 276 276 276 276 276 276 276 276 276 276 276 277 275 275 274 273 276 275 277 275 276 274 276 275 274 275 276 276 276 277 277 277 278 278 278 279 281 282 283 284 285 286 286 286 285 286 286 287 287 286 286 286 287 287
281 281 281 280 280 280 280 279 279 279 279 279 279 279 278 278 277 277 277 278 277 277 277 277 276 276 276 276 276 276 276 276 276 276 276 276 276 276 276 276 275 276 276 276 274 273 273 273 275 274 275 274 274 274 275 275 275 276 275 276 276 277 277 278 278 278 279 281 282 282 283 283 283 283 284 285 285 285 285 285 285 285 285 285 285
280 280 280 280 280 280 279 279 279 279 278 278 278 278 278 278 277 277 277 277 277 277 277 276 276 276 276 276 276 276 276 275 275 275 276 276 276 276 275 276 275 275 275 275 275 274 273 272 274 273 274 273 274 275 275 275 275 275 276 276 277 277 277 278 278 277 278 279 280 280 281 281 281 282 282 283 283 284 284 284 284 284 284 284 283
280 280 280 280 279 279 279 279 278 278 278 278 278 278 278 278 277 277 277 277 277 277 276 276 276 276 276 276 276 275 275 275 275 275 275 275 275 275 275 275 275 275 275 275 275 275 273 272 273 274 274 274 274 274 275 275 275 276 276 276 276 276 277 277 277 276 277 277 278 278 278 279 279 280 281 281 282 283 283 283 283 283 283 283 282
279 280 279 279 279 279 279 278 278 278 278 278 278 277 277 277 277 277 277 276 276 276 276 276 276 276 276 276 276 275 275 275 275 275 275 275 274 274 274 274 275 274 274 274 275 274 274 273 272 272 273 272 273 274 275 275 274 274 275 276 276 276 275 275 275 275 275 275 275 275 276 276 277 278 279 280 281 281 281 282 281 281 280 280 281
279 279 279 279 279 279 279 279 279 278 278 277 277 277 277 277 277 276 276 276 275 275 275 276 276 276 276 276 275 275 275 276 275 275 274 274 274 274 274 274 274 274 274 274 274 274 273 272 272 272 272 273 274 273 275 276 275 275 274 273 273 275 275 274 273 275 275 275 275 276 276 275 276 276 277 278 278 279 279 279 279 279 279 279 281
279 279 279 279 279 279 279 279 279 279 278 277 277 277 277 277 276 276 276 275 275 275 275 275 276 276 276 276 276 275 276 276 275 275 275 274 274 274 274 274 274 274 273 274 273 273 272 272 271 271 272 272 273 275 276 275 274 274 275 273 271 272 273 273 273 272 274 274 273 272 274 274 274 275 276 276 276 277 277 277 277 277 278 280 281
279 279 279 279 278 278 278 278 278 278 278 277 277 276 276 276 276 276 275 276 276 275 275 275 275 275 276 276 276 275 276 275 276 276 275 275 274 274 274 274 274 274 273 273 272 272 271 271 270 272 272 272 273 273 273 273 272 272 273 273 272 272 272 271 272 274 274 272 272 271 272 272 272 273 273 273 273 275 274 275 275 276 279 280 282
280 279 279 279 279 278 278 278 278 277 277 278 279 280 279 276 276 275 276 276 276 276 275 275 275 275 275 275 275 276 276 277 277 278 278 278 277 276 275 274 273 273 271 270 270 271 271 269 270 271 271 272 273 273 273 273 274 274 272 272 270 271 271 270 271 273 273 272 270 269 270 272 271 271 272 271 272 273 273 273 274 277 278 281 282
279 279 279 278 278 278 278 278 277 277 277 277 280 282 282 281 277 276 276 276 276 276 276 275 275 275 275 275 275 276 277 277 278 279 279 279 279 278 277 277 276 273 269 269 269 270 269 269 270 271 272 272 273 274 273 273 274 273 272 271 270 270 268 267 267 270 274 271 269 268 269 272 271 270 271 271 272 272 273 273 277 278 279 281 281
279 279 278 278 278 278 278 278 277 277 277 280 282 283 284 283 281 277 277 277 276 276 276 276 276 276 275 275 274 275 276 277 277 278 279 280 280 280 280 279 279 278 276 272 270 269 269 270 270 272 272 273 273 274 273 273 272 272 272 271 270 269 268 267 268 267 271 272 268 267 268 271 271 270 270 271 272 272 272 275 277 279 280 280 280
279 278 279 278 278 278 278 277 277 277 277 281 283 284 284 285 284 280 277 277 277 277 277 277 276 276 276 275 274 274 275 277 276 277 278 278 280 280 280 280 279 279 279 279 277 273 273 272 272 272 273 274 273 273 274 273 274 271 271 270 270 269 269 268 268 268 270 271 268 267 266 269 270 269 269 271 272 272 272 274 276 278 279 279 280
279 279 278 278 278 278 277 277 277 277 277 280 284 284 285 285 285 282 277 277 277 277 277 277 276 276 276 275 274 273 274 275 276 275 275 275 275 276 276 277 276 277 279 279 280 279 277 275 274 273 275 276 273 274 275 275 273 271 270 269 270 269 268 268 269 269 270 270 267 267 265 268 270 269 268 270 272 272 272 274 276 277 278 279 279
279 278 278 278 278 278 278 277 277 277 277 281 283 285 285 286 286 285 279 277 277 277 277 276 276 276 275 275 275 274 274 274 275 275 274 273 272 271 271 271 272 273 274 275 277 278 278 278 277 276 276 276 276 275 275 275 274 273 273 271 270 269 268 268 268 268 268 270 269 267 263 267 269 268 268 270 271 271 272 273 275 276 277 278 279
280 279 279 279 279 278 278 278 277 277 277 281 283 285 286 287 287 284 280 277 276 276 276 276 276 276 275 275 274 274 274 273 275 278 275 273 271 268 268 269 270 271 272 274 276 276 276 275 276 276 276 276 277 276 276 276 275 274 273 272 270 267 266 266 264 266 266 269 269 267 264 265 269 267 268 270 270 270 271 271 273 275 276 277 278
279 279 279 278 279 278 278 277 277 277 277 280 283 284 286 287 286 284 279 277 276 275 275 275 275 275 274 274 274 274 274 273 275 278 279 275 269 267 267 267 268 268 270 272 276 278 278 279 279 279 279 280 279 279 278 277 276 274 271 268 267 266 264 263 264 264 265 267 268 268 266 264 267 267 267 268 269 268 269 270 271 273 275 276 276
279 279 278 278 279 278 278 277 277 277 277 279 282 283 285 286 285 282 279 277 275 274 274 275 275 274 274 275 274 274 273 273 276 278 280 277 269 268 267 267 266 267 269 272 273 274 278 279 280 280 280 278 276 275 275 274 274 274 270 266 266 266 264 264 262 264 264 266 267 269 265 265 266 267 266 267 267 268 269 270 270 271 273 273 274
279 279 278 277 277 276 276 276 277 276 276 277 280 283 284 285 285 282 279 277 276 275 274 274 275 274 274 275 275 275 274 273 276 278 280 279 272 269 268 268 267 268 270 272 272 272 273 274 275 276 275 274 271 270 270 272 273 272 271 269 267 265 264 264 263 263 262 264 267 269 265 265 265 266 266 263 263 266 269 269 269 269 270 270 271
Wind_Speed
6 6 6 7 7 5 5 6 7 6 6 6 7 8 7 6 7 8 8 8 7 8 8 9 9 9 9 9 9 9 8 8 8 9 8 8 9 14 22 22 22 22 22 22 23 22 21 22 24 23 22 22 22 23 24 24 24 25 26 24 24 25 25 24 25 25 25 25 26 25 25 25 25 25 25 25 25 25 24 24 24 23 22 22 23
6 5 8 9 8 7 5 6 6 6 5 7 7 9 8 7 8 7 8 9 9 6 8 9 9 9 8 9 8 8 8 8 8 8 8 8 8 10 20 21 21 22 23 22 24 23 24 24 24 25 24 23 23 23 25 24 25 25 27 28 27 26 25 25 25 25 26 25 26 26 25 25 25 25 25 24 24 24 25 25 25 24 23 22 21
7 8 7 8 8 8 7 5 6 6 7 8 6 8 7 8 7 7 8 9 8 5 8 9 8 9 8 9 7 8 8 8 8 8 9 8 7 8 11 20 22 22 22 23 23 23 24 23 24 23 24 24 23 23 23 25 26 26 26 26 27 27 26 25 26 26 25 25 26 26 26 26 26 25 25 25 25 25 25 25 25 24 24 24 23
9 9 8 7 8 8 7 7 7 6 7 7 7 7 9 9 9 9 9 9 8 7 7 9 9 8 8 9 8 8 8 7 8 8 8 8 7 8 8 9 18 22 22 23 23 24 23 24 23 23 22 23 23 22 23 23 24 25 26 26 26 27 27 27 26 25 25 25 25 25 25 25 26 26 26 26 25 25 25 26 26 25 24 24 25
6 9 9 9 9 8 7 5 7 7 8 10 8 9 9 9 10 9 9 8 9 8 7 9 9 7 8 7 7 8 7 7 7 8 8 8 7 7 7 8 9 15 20 21 23 23 23 24 23 24 24 23 23 22 22 23 23 25 25 25 25 24 24 24 25 25 25 24 24 25 24 25 25 26 26 26 26 25 25 25 25 25 26 25 25
8 6 7 9 9 9 8 6 5 7 7 7 8 8 9 10 9 9 8 7 8 6 8 9 7 7 7 6 7 6 6 8 8 7 7 8 7 7 7 7 8 8 8 16 21 22 23 23 23 24 24 24 24 24 23 23 23 24 23 23 23 23 23 23 23 23 23 23 23 23 24 24 25 25 24 25 25 25 26 25 25 26 25 25 25
8 9 7 7 7 9 6 5 5 6 7 5 8 8 8 9 9 10 8 7 7 7 9 8 7 8 6 6 7 6 7 7 7 7 8 7 7 8 8 7 7 7 7 7 11 20 21 22 22 23 24 24 24 24 24 23 22 22 22 23 22 22 23 23 23 23 23 23 23 23 23 23 23 23 24 24 23 23 24 25 25 26 26 26 26
7 8 8 7 8 7 6 5 6 6 6 7 9 7 8 9 7 10 11 7 8 8 7 8 7 8 6 6 6 6 7 6 7 8 6 7 8 8 8 8 8 7 7 7 7 11 21 21 22 22 23 23 23 24 24 24 23 23 22 22 22 23 23 23 23 23 23 23 23 23 23 23 23 23 23 23 23 23 24 23 23 23 25 25 25
7 5 8 7 7 7 6 6 5 6 9 8 5 6 9 9 7 5 10 9 9 10 8 7 7 7 7 7 6 6 7 6 7 6 5 8 8 8 8 8 7 7 7 7 7 7 13 20 20 21 22 22 23 24 24 24 24 23 22 23 23 23 23 23 23 23 23 23 23 23 23 23 23 23 23 23 23 23 24 24 24 24 25 25 25
6 6 7 7 7 7 6 6 8 8 8 8 6 4 6 9 10 6 7 9 8 9 9 8 6 7 7 8 6 7 6 6 6 6 7 8 8 8 7 6 7 7 7 7 7 7 7 11 15 17 21 22 23 24 24 25 25 24 23 23 23 23 23 23 23 23 24 24 24 24 24 24 23 23 23 23 23 23 24 24 24 24 24 24 24
7 7 8 8 8 7 7 6 7 9 10 8 6 7 7 7 12 9 6 6 8 8 9 8 7 7 7 7 7 7 6 6 6 7 7 7 7 6 5 7 7 8 8 8 7 8 8 8 7 7 10 21 21 23 24 25 25 24 23 23 23 23 23 23 23 23 24 24 24 24 24 24 24 24 24 24 24 24 24 24 24 24 24 25 25
6 8 8 7 8 8 8 6 6 7 9 10 7 8 11 12 10 12 11 9 7 7 7 9 9 9 8 7 7 6 8 6 7 7 6 7 6 5 6 6 7 7 8 7 7 7 8 7 7 7 7 12 20 20 22 23 24 24 24 24 23 23 23 23 23 23 23 23 23 23 23 24 24 24 24 24 25 25 25 26 26 26 25 25 25
6 7 7 8 7 7 6 7 6 5 7 8 9 9 8 10 10 8 12 11 7 4 3 3 10 8 6 7 6 6 6 6 7 7 6 5 4 6 5 6 6 7 6 6 7 7 7 7 6 6 7 6 9 15 18 20 23 24 24 24 23 23 23 23 23 23 23 23 23 23 23 23 24 24 24 25 25 25 26 26 26 26 26 26 26
7 8 6 7 8 6 7 7 7 6 6 7 8 9 10 10 10 10 3 7 6 2 1 0 4 6 7 4 5 3 3 4 6 6 5 5 5 6 6 6 6 5 5 6 7 7 7 6 6 6 6 7 7 8 9 11 14 22 22 22 22 22 22 22 23 22 22 22 22 23 22 23 23 24 24 24 25 25 26 26 26 26 26 26 26
8 7 7 6 7 7 7 6 6 7 9 9 9 10 9 11 9 11 8 3 4 2 2 3 3 3 3 6 3 3 1 2 2 4 4 5 4 6 5 6 6 5 4 5 6 6 5 6 6 7 7 7 7 7 7 9 12 17 19 20 21 21 22 22 22 23 23 23 23 23 24 24 24 24 24 24 25 25 25 26 26 26 27 27 27
7 6 5 6 6 6 7 7 7 5 9 11 10 10 9 8 7 7 10 9 2 2 4 2 1 6 4 1 2 2 4 1 1 2 1 3 6 5 4 4 4 5 5 6 5 5 5 5 7 6 6 7 6 7 7 7 12 12 14 18 21 22 22 22 23 23 23 24 24 24 24 24 25 25 25 25 25 26 26 26 26 26 26 27 27
7 6 7 8 6 6 7 7 7 7 7 9 9 9 8 7 8 9 7 10 5 2 3 3 3 3 2 4 3 2 1 3 3 2 3 1 4 3 4 4 5 5 5 5 4 4 4 5 5 5 6 6 7 7 7 8 9 10 11 16 21 21 21 22 23 23 24 24 25 25 24 25 25 25 25 26 26 26 26 26 26 26 26 26 27
6 7 8 6 7 7 8 8 9 6 6 7 7 7 7 8 6 6 7 2 8 5 4 3 4 5 4 2 1 0 6 3 2 3 1 0 2 1 4 4 3 4 4 4 4 4 3 4 5 6 6 6 6 7 8 9 10 9 9 14 22 22 21 21 22 23 24 25 25 24 24 25 25 25 25 26 26 26 26 26 26 27 26 26 27
7 6 6 7 8 7 8 8 7 7 6 7 7 7 6 7 4 4 4 7 6 6 6 5 4 6 4 4 5 3 2 6 3 4 4 1 1 1 4 3 2 4 4 4 4 4 4 4 5 5 6 6 7 7 7 8 10 10 14 20 20 21 21 21 21 21 22 24 24 24 24 24 25 25 26 26 26 26 26 26 26 26 27 27 27
6 6 5 6 6 6 7 7 8 7 7 6 7 6 5 4 4 5 5 4 6 9 7 4 4 3 1 3 5 5 5 6 4 3 3 6 3 1 2 4 3 4 4 4 4 4 4 4 4 5 5 6 6 7 7 8 7 8 10 20 20 20 21 20 20 20 20 22 23 23 24 24 24 25 25 25 26 26 26 26 27 27 27 27 28
6 6 5 6 5 7 8 8 8 7 6 6 6 6 8 8 7 6 7 4 4 7 8 5 6 6 5 3 4 5 4 4 3 3 3 3 2 1 1 2 1 2 4 3 3 3 3 4 4 4 4 5 6 6 7 7 7 7 11 19 20 20 20 19 19 20 20 21 22 23 23 24 25 25 25 25 26 26 26 26 26 26 27 27 28
5 4 6 5 7 7 8 10 9 8 6 8 8 8 8 9 9 7 7 8 4 6 7 6 5 5 2 5 4 2 4 3 4 4 4 3 2 3 2 1 2 1 1 3 4 3 3 3 3 4 4 4 5 6 6 7 7 7 11 19 18 18 19 19 19 20 21 21 22 23 23 24 24 25 25 26 26 26 26 26 26 26 27 27 27
5 4 4 6 6 6 7 8 7 7 8 8 8 8 7 7 7 8 9 9 7 7 7 5 5 4 4 4 6 5 5 4 5 2 3 2 3 2 2 3 2 1 2 2 2 3 3 2 3 3 4 5 5 6 6 7 7 11 13 16 17 18 18 19 19 20 20 21 21 22 23 23 24 25 26 26 26 26 26 26 26 26 27 27 27
4 5 5 5 6 6 6 7 7 7 8 6 7 7 7 7 7 7 7 7 8 7 7 8 6 5 4 3 3 3 3 5 4 3 4 4 3 3 2 2 2 3 1 1 2 3 3 3 3 3 4 4 5 5 6 6 6 14 11 14 17 18 19 19 20 20 20 21 21 22 23 23 24 25 26 26 26 27 27 27 27 27 27 27 27
6 7 7 8 6 8 7 7 7 6 7 7 7 8 8 7 8 8 8 9 8 9 8 8 8 8 5 3 4 4 4 3 3 4 2 2 3 3 1 1 1 1 1 1 3 2 2 2 2 2 3 4 5 5 5 6 6 11 14 10 17 18 19 19 19 20 21 21 21 22 23 24 25 25 26 26 27 27 28 28 28 28 28 28 27
9 9 7 7 5 6 7 7 6 7 7 8 8 8 8 7 8 8 8 6 6 8 8 8 6 6 6 6 4 4 4 3 4 4 5 5 3 3 3 2 1 1 1 2 1 2 3 2 1 1 2 4 5 6 5 6 6 11 15 10 11 16 18 18 19 20 20 21 22 22 23 24 25 25 26 26 27 28 28 28 28 29 29 28 29
7 6 7 6 6 5 5 6 6 6 6 6 5 5 5 5 5 6 5 4 5 6 6 7 7 8 5 6 6 4 4 3 3 3 2 2 3 3 4 3 2 2 2 1 1 4 1 2 1 1 3 4 5 5 6 6 7 13 13 8 8 14 17 18 19 20 21 21 22 22 23 23 24 25 25 25 26 26 28 28 28 29 29 28 28
6 7 6 5 6 6 5 6 6 6 5 6 6 5 5 6 6 6 7 3 6 7 5 5 6 6 6 5 6 4 3 3 2 3 2 1 2 2 2 2 2 1 2 2 2 1 2 2 2 2 3 4 4 5 6 7 7 13 11 8 9 10 15 19 20 20 21 21 22 22 22 22 23 24 24 25 25 26 26 27 27 28 28 28 28
7 6 7 6 5 6 7 6 6 6 7 6 6 6 5 5 6 6 7 5 6 7 5 6 5 5 4 5 4 5 4 3 3 2 2 2 1 1 1 1 2 2 0 1 1 1 1 1 1 1 3 5 5 5 6 6 9 11 8 9 10 10 14 20 20 20 21 22 21 22 22 22 22 23 24 25 25 26 27 27 27 27 27 28 28
7 6 6 7 6 6 7 7 6 6 7 6 7 7 7 6 6 6 5 5 6 5 5 6 6 5 5 4 4 4 3 3 3 3 2 2 2 1 1 0 1 1 1 2 2 1 1 2 1 1 3 6 6 6 5 6 10 10 8 9 9 10 17 18 19 19 20 21 21 21 21 22 22 23 24 25 25 26 27 27 27 28 28 29 28
7 8 8 7 7 7 6 7 6 7 6 7 7 7 7 7 6 6 5 5 5 6 5 5 5 5 6 6 4 4 3 4 3 3 2 2 2 2 1 1 0 0 2 2 1 0 2 2 2 2 3 5 6 6 5 5 7 10 8 8 9 15 18 12 16 18 19 19 20 20 21 22 23 23 24 24 25 26 26 27 28 28 28 30 29
7 8 7 8 8 8 6 6 7 6 7 6 7 7 7 7 7 6 5 5 6 6 6 4 4 5 6 6 5 4 4 4 3 3 3 2 3 3 2 2 2 1 2 3 3 4 2 1 2 1 3 5 6 6 6 5 5 9 7 7 9 14 9 8 11 15 17 18 19 20 22 22 23 23 23 23 24 26 27 27 28 29 29 29 29
8 8 8 8 8 8 8 7 8 7 7 6 5 6 6 7 6 7 7 6 7 6 6 6 4 5 5 6 5 4 4 4 4 3 3 3 3 3 3 2 3 3 3 3 4 4 3 0 1 2 3 4 5 5 6 6 6 6 7 7 8 8 8 7 8 11 15 17 18 20 21 21 22 22 23 23 24 25 26 27 27 27 27 27 27
8 9 9 7 7 8 8 8 7 7 7 6 6 6 7 7 6 4 6 7 7 7 6 6 6 4 4 6 5 5 4 4 4 4 4 4 4 4 3 3 3 3 3 3 3 2 4 1 3 2 1 3 5 4 6 7 7 7 7 7 6 7 7 7 7 7 15 16 19 20 20 20 21 23 24 24 25 25 25 26 26 25 25 26 26
8 8 9 8 8 7 7 7 7 7 7 7 6 6 7 8 8 6 5 7 7 8 7 6 6 5 5 5 5 5 3 4 4 4 4 4 4 4 4 3 3 3 3 3 2 3 4 4 2 2 2 4 4 6 7 6 6 7 8 7 6 5 6 7 7 7 10 16 19 18 18 19 21 23 23 23 23 24 25 25 24 24 24 24 24
8 6 6 7 7 8 8 8 7 8 8 7 7 6 6 7 7 8 7 6 6 6 7 7 7 6 6 6 5 6 5 5 5 4 4 4 4 4 4 3 3 4 3 4 4 3 3 3 2 1 4 4 5 6 6 6 6 6 6 6 6 5 6 6 7 6 9 16 18 17 17 19 21 21 22 22 22 23 24 24 24 24 24 23 23
6 7 6 6 7 8 8 9 9 8 7 7 7 6 6 6 7 7 7 7 6 6 6 7 7 7 7 7 7 7 6 6 5 5 5 6 4 4 4 4 4 3 3 4 4 4 4 5 4 3 3 4 5 6 6 6 7 6 5 5 5 5 5 7 7 6 9 13 16 15 15 18 19 20 21 21 22 23 23 23 23 23 23 23 23
8 7 8 7 8 9 7 6 6 7 7 7 8 8 7 7 6 6 6 6 6 6 6 6 7 7 7 7 7 8 8 8 7 6 6 7 5 5 5 5 4 4 4 4 4 5 5 5 4 4 2 4 6 4 4 6 7 7 5 4 4 4 6 7 7 6 5 5 8 9 11 13 16 18 18 19 20 21 21 22 23 23 23 22 23
9 9 8 8 7 7 8 8 8 8 8 7 7 7 8 7 7 7 7 6 6 6 6 6 6 6 6 6 7 8 8 8 7 7 7 7 6 6 6 5 5 5 5 5 5 5 5 4 4 3 4 4 5 6 5 6 6 6 6 7 5 4 5 7 9 7 6 5 7 16 14 13 17 14 16 18 18 19 20 21 21 22 21 22 23
9 8 9 8 8 8 8 8 8 7 7 7 7 7 7 7 7 7 7 7 6 6 6 5 6 7 7 7 8 8 8 7 7 6 7 7 5 5 5 4 5 6 5 5 5 4 4 4 4 3 3 5 5 4 5 5 5 4 4 7 9 8 7 7 8 10 6 5 6 10 10 8 11 13 14 14 14 17 18 18 19 19 21 23 24
6 7 7 7 8 8 7 7 8 7 7 7 7 8 8 8 7 7 7 8 7 7 6 6 6 6 6 6 6 6 7 7 9 8 8 7 6 5 5 6 6 6 5 4 4 3 3 3 4 4 4 4 4 5 5 5 5 6 7 7 8 7 8 9 8 7 5 5 6 8 11 9 9 10 9 9 9 14 13 17 14 18 22 24 25
8 8 8 7 7 8 8 8 7 7 7 7 9 15 13 9 8 6 6 7 8 7 7 6 6 6 7 6 6 10 11 12 12 12 12 12 10 7 6 6 7 5 5 4 4 4 3 4 4 3 4 4 5 6 6 5 6 7 8 8 9 9 8 8 7 4 4 5 9 9 10 8 8 10 9 9 9 10 9 10 10 17 22 25 25
11 10 10 10 9 9 9 9 9 8 8 7 14 17 16 16 10 8 8 8 8 7 8 7 8 8 7 6 6 9 11 12 12 15 14 14 13 13 12 12 10 8 7 6 5 4 4 4 4 4 5 7 6 5 6 5 5 6 7 7 8 9 9 10 9 6 1 7 9 10 10 7 6 9 11 9 9 9 9 9 19 23 24 24 23
10 10 11 12 11 10 9 9 10 10 9 10 18 18 18 19 15 10 8 8 7 7 7 8 8 7 8 7 6 5 8 9 9 10 12 14 14 14 15 15 14 14 12 9 6 4 5 5 5 6 6 7 6 5 6 4 6 7 7 7 7 7 8 8 8 9 8 9 11 10 10 7 5 7 10 9 9 8 9 14 20 22 23 22 22
10 11 11 11 11 9 10 11 11 10 9 13 18 19 20 20 20 13 8 8 8 9 9 9 9 8 7 6 6 6 6 12 10 8 8 9 13 15 14 14 15 16 15 16 13 8 5 6 7 8 7 7 7 7 4 4 7 8 7 6 6 6 7 7 9 11 11 9 10 9 9 10 6 7 9 10 9 9 10 12 19 22 22 21 22
9 8 8 11 11 11 11 12 11 10 10 13 20 21 21 21 21 17 9 9 9 9 10 9 8 9 9 8 7 7 7 9 8 9 8 8 7 7 8 8 7 9 13 16 17 17 14 9 8 9 8 8 8 7 6 6 8 6 6 6 6 8 7 9 11 12 12 8 7 10 9 6 6 8 9 11 9 10 8 13 20 20 20 21 22
10 11 11 11 10 10 10 9 9 10 10 15 20 20 21 22 22 18 9 8 8 8 8 8 9 8 9 8 8 8 8 9 8 10 9 8 7 7 7 7 6 7 7 8 10 10 10 10 9 8 7 6 7 6 5 6 7 7 6 7 5 3 4 5 7 7 10 4 5 6 7 8 7 9 8 10 11 10 8 12 16 17 18 21 23
7 6 6 7 8 9 9 9 10 11 10 16 20 21 22 22 21 12 9 10 10 8 7 8 8 7 7 8 8 8 8 8 10 17 13 7 7 9 9 8 6 7 7 8 11 9 8 7 6 7 7 7 8 7 7 6 5 4 4 1 1 0 3 6 6 4 5 5 4 5 6 8 8 10 10 9 10 11 9 9 12 14 17 22 22
9 9 10 9 8 9 9 9 10 10 8 14 20 20 20 19 14 8 7 6 7 9 9 8 7 7 8 8 8 7 8 9 12 17 17 14 8 9 9 9 6 5 7 7 12 16 16 16 16 16 16 16 14 13 10 8 7 6 1 2 6 1 3 5 5 2 5 6 4 3 6 10 8 9 12 9 8 12 10 8 8 11 19 20 20
10 10 8 8 7 8 9 10 10 9 8 9 15 17 16 18 13 9 6 7 8 7 6 6 6 6 8 12 10 9 9 8 13 18 18 15 10 10 9 9 8 8 8 6 5 7 15 17 18 18 17 8 2 1 1 4 6 7 3 7 3 1 4 4 5 4 6 6 4 2 5 7 10 10 12 10 9 6 7 6 9 12 15 14 18
8 6 6 7 6 6 7 8 9 10 7 6 12 15 17 17 14 8 6 6 7 7 6 7 6 6 6 10 15 12 10 9 15 17 19 18 11 11 11 8 8 10 9 7 7 8 7 6 7 4 5 4 2 1 2 4 5 5 5 5 3 3 4 4 5 6 5 2 2 1 7 8 9 8 9 12 7 4 4 6 11 10 11 11 11
Wind_Direction
131 129 119 114 107 106 114 116 117 118 118 104 104 105 96 97 90 87 83 82 77 74 71 66 67 64 65 61 56 54 50 51 47 44 41 42 36 28 34 36 53 56 54 56 56 54 53 54 55 54 54 55 53 52 50 48 49 48 47 47 46 43 41 38 34 32 30 28 25 22 22 20 18 18 16 17 15 13 13 11 10 9 9 7 6
136 136 134 133 127 114 104 114 115 118 111 108 105 106 108 97 91 87 85 84 79 75 80 72 66 64 62 64 56 55 52 51 46 45 47 41 38 34 30 36 39 52 58 56 57 56 52 50 51 50 51 52 49 49 49 48 47 44 42 41 43 41 37 38 36 32 28 26 24 21 20 19 17 16 16 14 13 11 11 10 8 7 5 4 4
145 141 134 131 127 122 119 117 108 107 110 105 99 101 98 99 100 98 95 89 84 75 80 79 71 65 60 61 59 58 54 51 51 46 45 42 41 38 32 33 36 38 48 55 56 56 54 51 50 51 50 49 50 50 49 47 46 44 43 41 38 39 37 34 34 31 27 26 24 22 20 18 17 16 14 12 11 10 8 7 5 4 3 -0 358
147 139 136 134 131 130 134 127 118 116 110 109 103 101 99 97 90 89 92 96 96 79 75 80 72 68 63 63 58 59 54 53 53 50 49 44 42 38 39 31 34 36 36 42 49 51 50 51 51 50 50 49 48 50 49 49 46 46 44 40 36 35 35 32 31 30 28 26 23 21 20 18 16 15 13 12 10 9 7 5 3 1 359 358 356
135 139 144 140 134 129 125 119 125 123 114 110 107 107 103 101 96 96 92 97 96 89 79 75 74 68 65 59 63 60 57 58 57 53 49 47 44 42 41 36 33 32 32 35 41 45 48 49 50 50 49 50 48 47 47 47 45 43 42 40 36 36 35 33 30 27 27 25 24 22 19 17 15 14 12 10 9 7 6 3 1 360 358 357 355
127 113 130 133 128 120 120 116 119 121 120 122 116 117 112 108 109 101 100 98 96 96 88 81 77 73 70 65 66 63 63 60 55 54 53 51 48 46 43 42 40 39 28 30 35 42 44 46 48 48 48 47 47 47 47 46 45 44 41 40 38 35 33 32 29 27 24 23 22 20 18 16 14 12 10 8 7 6 4 2 0 359 357 355 353
132 131 119 121 128 125 111 118 120 119 113 113 116 113 110 112 117 108 100 95 93 85 87 88 85 76 69 68 67 65 63 66 61 56 54 53 51 46 43 41 39 36 29 33 26 35 41 43 45 45 45 45 44 44 44 42 42 41 39 38 36 33 30 29 27 24 22 20 19 17 15 13 10 9 8 6 4 2 0 359 357 355 354 353 351
128 128 123 123 127 111 112 115 115 114 110 115 119 114 108 105 109 121 114 107 102 92 89 91 85 80 70 67 67 63 70 65 61 61 53 58 53 49 44 41 38 36 32 35 33 29 37 40 42 43 42 43 44 42 41 40 38 38 36 34 33 31 28 25 24 21 20 17 15 13 11 9 7 5 4 2 0 359 357 355 354 352 351 349 347
123 121 117 120 114 108 114 110 109 111 118 114 106 119 120 114 109 101 116 121 108 103 93 91 87 81 75 71 60 64 61 58 59 64 58 59 54 50 49 46 45 41 42 39 37 34 33 37 40 40 39 40 41 41 39 37 35 33 33 32 30 29 27 25 22 19 16 13 11 9 6 5 3 2 1 359 357 355 353 351 350 348 347 346 344
109 108 109 109 110 111 110 110 116 112 111 116 105 103 105 119 113 105 110 118 112 109 104 96 92 86 74 65 58 58 57 56 61 55 56 58 56 50 49 47 44 41 40 41 40 38 36 35 35 35 34 36 38 38 36 33 31 29 28 28 27 25 24 21 18 15 12 9 7 5 3 2 360 358 357 355 353 352 350 347 346 344 343 342 341
116 118 119 125 116 113 115 121 121 120 116 116 113 116 111 108 117 109 69 70 107 103 110 107 94 81 72 61 62 58 57 56 53 55 53 52 57 56 52 45 47 39 38 38 36 36 33 31 27 27 27 31 34 34 34 30 26 27 25 24 22 20 18 16 14 12 9 6 4 1 359 358 357 355 354 352 350 349 346 344 343 341 339 338 337
127 122 120 123 124 129 126 132 135 136 131 131 138 138 132 118 110 114 107 89 77 104 115 108 88 79 76 68 58 59 54 53 57 54 54 50 53 51 56 51 51 46 41 39 40 36 37 33 33 29 27 28 33 33 33 31 25 24 23 19 16 15 12 11 10 9 6 3 0 359 357 356 354 352 351 349 348 346 344 342 341 338 337 336 335
121 117 116 118 111 114 111 114 130 129 130 132 129 120 113 115 113 103 117 114 102 111 100 106 110 82 71 69 67 53 60 58 61 57 54 54 54 60 53 58 52 51 42 46 44 41 40 37 35 34 30 26 28 29 30 30 25 21 20 15 12 10 8 7 6 5 3 0 359 357 356 355 353 351 349 347 345 344 342 340 339 338 336 335 334
116 114 98 117 122 123 131 136 133 113 97 107 112 117 122 122 125 107 54 114 121 159 133 58 78 131 132 107 74 71 60 53 58 56 58 53 54 57 51 53 52 54 53 55 51 45 43 39 39 39 35 34 31 27 25 24 22 20 18 14 10 8 5 3 2 1 0 359 357 355 355 352 350 349 347 345 343 342 340 339 337 335 333 332 330
103 113 121 119 119 127 128 123 122 130 125 124 126 129 136 138 146 132 126 44 89 41 12 327 113 100 87 115 138 113 81 73 70 52 41 53 53 60 54 57 53 54 62 62 56 50 44 40 44 41 38 35 34 30 32 31 22 20 16 11 7 6 2 0 0 360 359 358 356 354 353 352 350 348 346 343 342 340 338 336 335 334 332 330 329
95 103 101 98 111 125 127 129 131 150 137 136 140 139 143 140 132 128 125 132 139 83 19 344 153 148 151 15 140 133 124 156 82 43 34 78 55 65 62 61 53 52 55 56 51 52 47 44 47 46 42 41 37 32 31 27 17 16 12 7 6 5 1 359 359 360 359 357 355 354 352 351 349 348 346 344 342 340 338 336 334 333 331 329 328
92 92 105 106 113 128 128 127 129 139 142 133 143 145 139 133 139 142 161 141 136 128 50 23 40 342 139 137 115 201 182 123 149 90 14 56 59 58 73 60 56 49 53 61 61 58 56 53 55 51 46 42 36 34 28 19 15 6 6 4 4 5 2 360 359 359 357 355 353 353 351 349 348 346 345 344 342 340 338 336 334 332 331 330 328
90 94 95 113 120 126 124 126 127 132 135 122 118 119 131 140 152 146 121 50 128 122 111 46 53 47 29 4 0 9 147 176 183 145 185 128 320 93 63 66 71 66 60 66 64 65 58 61 54 54 47 40 37 32 27 22 14 9 8 359 2 3 3 1 359 357 354 353 352 351 350 347 347 346 344 343 342 340 338 336 335 334 332 331 329
92 85 93 96 103 113 114 114 117 116 120 125 128 128 128 127 137 130 122 127 138 113 134 140 114 52 40 56 64 41 84 140 180 112 159 169 282 56 60 37 75 70 58 58 58 69 61 62 58 55 47 40 35 29 26 17 15 12 6 2 3 2 2 1 358 355 352 351 350 349 348 347 347 345 343 342 340 338 337 336 335 334 333 332 330
97 97 105 111 120 114 120 123 120 121 129 129 127 130 116 104 106 111 122 129 141 136 144 168 141 120 16 64 69 67 60 58 56 167 135 156 160 166 153 36 18 47 47 40 48 56 69 63 57 52 52 43 35 30 21 12 9 6 7 2 1 2 1 359 356 353 350 350 349 348 347 346 344 343 341 339 337 337 336 335 335 335 333 332 331
77 103 112 121 125 131 132 127 123 127 127 123 124 134 136 135 136 134 133 117 120 127 134 158 149 147 144 84 78 76 72 65 81 60 120 143 162 173 59 7 50 35 32 55 58 62 73 69 65 57 54 45 36 30 21 13 6 8 9 2 0 360 359 356 354 352 350 349 348 347 346 344 343 342 340 339 336 336 335 336 334 334 333 331 330
96 99 115 120 128 139 134 130 131 134 136 133 132 132 135 128 132 131 131 117 124 137 138 143 138 141 149 150 133 133 73 62 47 76 55 31 147 165 186 156 159 133 24 33 54 95 93 85 80 66 51 48 35 26 24 17 6 8 7 1 359 357 356 355 353 352 350 349 348 346 344 343 341 340 338 338 336 336 335 334 333 332 330 329 329
123 120 117 134 135 141 137 133 134 135 136 141 147 140 138 131 132 129 132 134 141 132 121 117 125 126 141 160 145 149 151 160 170 155 138 142 128 179 214 208 211 184 150 18 90 108 108 83 74 61 50 40 33 23 23 15 8 8 10 1 356 355 354 353 351 351 348 347 345 343 341 340 339 338 337 337 335 335 334 331 331 328 327 328 328
127 137 147 158 148 140 138 137 140 142 142 139 136 138 138 136 138 139 135 130 134 131 131 133 135 125 122 119 112 115 121 138 149 146 156 156 156 152 167 161 212 227 267 27 116 128 106 84 70 65 45 43 30 23 20 14 7 2 8 358 355 355 353 350 349 347 346 345 343 341 340 339 338 337 336 335 333 332 331 329 328 327 328 327 327
171 162 168 168 157 147 152 151 145 146 138 140 142 145 145 144 142 140 143 150 152 145 141 145 148 140 138 115 116 125 118 97 118 137 99 118 143 134 180 166 190 207 160 192 168 127 124 114 96 65 53 43 31 24 20 16 4 360 5 354 353 352 349 344 343 345 344 342 341 340 340 339 337 337 335 334 333 331 330 329 329 327 328 326 325
164 177 159 155 162 149 138 122 118 136 143 142 143 147 144 139 140 137 140 129 128 128 121 125 115 112 122 127 126 123 124 131 133 136 147 146 158 152 146 179 194 225 291 242 210 193 155 132 96 68 49 39 30 19 21 11 359 358 1 351 345 346 344 340 342 343 343 341 340 339 338 337 336 335 334 333 331 329 328 327 328 326 328 328 327
161 140 143 153 139 127 118 120 127 126 124 123 111 104 94 96 91 92 83 86 94 99 107 121 124 131 124 123 128 121 132 140 146 156 154 182 150 165 161 157 169 202 223 218 258 260 138 135 138 37 42 34 24 19 13 5 354 354 355 348 339 336 338 337 341 343 343 342 341 340 338 337 335 334 332 330 327 327 326 325 325 325 325 323 322
121 128 136 136 134 125 118 114 113 113 108 101 97 95 94 99 97 98 95 73 102 95 101 102 106 114 116 120 118 123 125 137 144 143 156 138 139 144 183 168 167 187 190 226 206 235 124 154 138 93 36 24 18 17 4 357 357 351 350 346 338 329 330 336 341 343 344 343 342 341 338 336 333 331 329 327 326 325 324 323 323 323 322 321 320
125 129 130 126 124 127 123 119 116 113 104 97 98 98 98 98 102 106 103 108 107 110 116 115 110 111 110 121 116 125 130 125 122 125 119 123 120 128 290 206 183 172 202 258 225 195 123 114 263 141 52 9 9 6 2 358 351 348 344 339 332 324 326 336 340 341 341 342 341 340 337 334 332 331 330 328 327 326 326 325 324 323 321 320 321
130 131 129 130 128 134 127 123 120 112 109 108 108 108 104 96 94 89 100 119 113 110 113 118 121 118 116 114 122 125 128 129 125 115 123 129 137 151 139 35 313 202 184 207 277 189 199 128 114 352 351 6 358 355 354 344 344 344 338 332 326 319 325 334 337 339 339 341 340 337 334 333 332 331 330 329 328 327 326 324 323 322 320 320 323
136 143 143 142 141 136 134 128 124 116 113 116 118 114 115 110 108 114 121 132 124 118 122 124 130 134 135 130 130 123 131 123 120 122 118 130 131 134 124 109 50 63 151 150 207 314 121 231 105 96 358 350 351 338 337 337 338 336 329 323 319 315 322 326 332 334 334 337 335 332 331 332 332 332 331 330 329 328 326 325 323 322 322 321 321
140 144 148 148 147 140 137 129 121 119 120 119 122 120 120 120 131 133 140 139 128 129 132 131 136 142 138 134 142 140 141 133 132 135 134 127 135 140 140 139 129 143 146 188 218 237 121 147 301 326 10 346 332 326 327 326 323 322 321 316 312 311 317 320 320 324 327 333 330 329 332 333 332 331 330 329 328 326 327 326 325 325 324 323 322
149 154 152 149 147 140 136 134 130 130 127 124 125 126 124 131 134 135 138 145 139 139 136 136 139 139 138 134 137 141 146 147 147 145 144 141 141 141 143 148 149 160 171 186 221 265 286 0 274 304 339 332 318 324 320 324 321 320 314 309 306 307 310 314 316 314 322 328 325 329 333 334 334 333 331 330 328 327 326 326 326 325 325 324 324
157 154 151 149 145 142 136 130 126 126 126 127 135 133 134 135 136 136 141 147 149 146 145 143 143 136 137 140 146 153 165 151 153 160 154 156 158 154 169 170 172 174 194 180 234 245 274 214 274 294 293 327 312 321 323 322 319 319 316 311 306 302 307 312 316 318 323 323 324 330 334 335 334 332 331 331 332 332 331 330 329 328 328 328 329
155 158 153 146 140 132 126 128 133 134 139 143 146 144 145 146 144 148 153 159 159 156 156 153 147 143 147 154 161 160 158 160 170 170 162 168 168 170 175 182 181 184 185 201 177 247 264 280 238 272 299 322 312 314 315 308 305 307 309 313 312 305 296 305 314 316 322 328 326 331 334 335 333 331 330 332 334 334 334 334 333 331 331 332 332
147 136 128 131 132 138 137 142 146 146 148 149 146 145 144 149 152 156 162 169 168 161 155 152 155 160 162 161 175 169 170 169 173 170 180 174 177 178 177 188 188 193 190 189 220 231 258 271 253 276 307 315 311 308 304 297 299 307 308 301 294 295 302 310 319 323 333 327 322 328 334 334 331 330 330 334 335 334 334 333 332 332 332 331 331
131 132 135 143 143 147 151 155 156 153 149 144 144 150 154 160 162 162 165 168 169 168 164 164 165 167 169 178 171 173 176 173 178 184 182 185 183 181 182 181 194 201 198 211 219 233 241 258 278 280 282 297 300 298 300 316 317 307 298 300 316 312 323 322 317 321 327 325 316 324 333 330 328 328 330 333 334 335 335 335 335 334 331 330 329
144 153 150 155 157 155 151 147 141 142 150 158 158 156 157 161 167 168 168 171 171 169 168 173 173 176 174 177 178 178 181 184 187 183 184 187 181 186 186 187 190 199 210 216 218 228 243 255 268 288 293 311 309 299 307 318 319 319 317 320 319 319 327 323 323 324 324 326 321 324 328 326 323 326 328 330 334 334 335 338 337 335 333 331 329
158 159 163 156 158 144 147 153 159 159 160 159 155 157 162 167 166 168 172 176 173 169 174 176 178 181 183 180 181 186 190 194 184 185 182 184 186 189 188 185 191 199 212 214 218 228 238 258 268 272 291 293 293 306 320 316 306 310 325 330 324 326 327 327 322 323 321 317 314 315 319 323 320 323 325 329 332 333 336 337 335 334 335 332 329
168 164 163 159 152 162 163 162 157 156 156 161 167 164 164 167 170 175 176 170 168 177 180 182 181 187 188 188 193 195 196 194 189 187 179 182 178 188 187 183 194 201 212 213 220 224 238 257 265 281 293 296 298 295 304 313 318 318 348 336 323 326 327 327 314 316 319 322 328 320 318 322 319 319 323 325 326 332 333 333 333 334 333 332 329
159 159 158 157 152 159 156 156 155 159 169 176 171 167 159 171 175 171 177 180 178 176 177 181 186 188 193 194 193 190 194 197 201 192 192 179 167 181 189 185 199 201 209 213 214 224 244 250 263 272 277 287 299 309 314 321 331 326 329 329 313 318 323 317 311 304 309 324 324 322 315 330 327 323 325 323 325 331 331 332 328 331 332 330 330
161 165 161 164 165 160 158 166 165 168 180 184 184 180 178 170 166 174 178 185 186 185 177 175 184 193 194 191 189 188 193 198 200 197 195 193 191 185 179 186 193 197 193 196 207 217 229 239 251 261 279 286 299 300 302 305 313 319 323 325 319 322 323 311 297 280 323 332 329 325 312 318 327 318 318 317 320 328 327 330 325 329 329 330 332
173 171 170 172 177 175 173 167 170 180 186 187 185 187 183 179 172 174 180 188 193 194 190 178 185 189 192 191 186 193 196 200 202 202 199 197 197 201 203 201 199 187 173 187 208 199 207 232 241 249 268 283 285 288 294 302 304 320 318 317 317 322 329 333 325 318 206 348 331 319 309 314 326 319 312 311 317 321 323 318 323 329 330 332 333
178 173 180 182 177 177 177 179 184 187 190 188 190 191 187 187 186 182 180 185 187 196 194 198 198 187 190 188 194 195 200 197 192 200 202 202 204 210 213 214 214 212 199 185 186 196 199 222 237 244 260 265 277 281 284 284 305 310 307 310 306 311 314 313 307 306 309 343 326 316 304 304 319 308 306 308 313 313 312 316 323 327 330 331 332
173 178 183 176 181 180 183 185 191 191 195 190 194 193 193 193 192 185 186 187 188 197 197 200 198 192 185 188 193 205 211 203 199 198 194 202 210 213 218 222 226 223 224 222 214 198 197 216 242 249 248 260 270 277 256 271 302 296 301 297 295 296 296 294 298 304 305 332 318 304 303 304 310 316 309 307 313 314 313 318 323 328 329 330 331
178 181 183 185 184 188 189 191 193 191 196 195 197 197 197 196 195 192 194 189 198 195 195 196 195 194 190 187 193 205 205 205 201 191 193 195 196 204 210 212 214 227 234 236 235 227 218 219 226 236 247 252 262 269 253 272 287 283 282 282 287 287 284 285 294 293 296 316 305 311 295 293 318 320 310 307 315 312 312 314 320 323 328 330 331
180 186 188 191 194 190 191 191 192 196 203 198 200 200 201 200 200 195 190 190 200 204 201 198 197 190 189 190 200 205 199 204 203 190 189 193 194 207 211 217 216 214 222 229 230 230 229 234 237 243 245 242 247 235 227 258 258 261 262 276 281 268 282 285 280 272 291 284 300 315 291 310 320 315 305 311 313 309 308 313 314 318 324 330 331
188 183 195 196 194 193 195 194 198 207 205 197 203 205 204 203 198 196 178 188 198 201 203 201 199 193 186 192 198 209 207 214 210 204 199 187 193 204 215 220 221 224 228 226 229 231 229 232 239 236 236 229 222 226 225 239 266 286 281 266 148 194 296 289 281 289 277 287 301 296 288 299 316 309 307 311 308 304 312 308 311 316 324 327 329
186 192 196 195 192 193 195 198 206 214 209 206 209 211 210 205 199 202 182 192 197 202 210 200 196 189 191 191 196 201 209 217 212 210 204 189 195 204 214 219 221 225 237 230 233 234 235 235 235 239 239 239 234 231 252 277 281 287 153 252 257 239 283 284 282 252 280 307 297 280 291 297 311 315 308 307 307 302 305 308 312 320 321 323 326
193 197 192 192 195 194 195 202 204 211 215 209 214 217 215 210 203 200 188 191 209 207 215 207 193 199 195 194 196 201 207 215 207 210 209 198 190 199 204 212 219 227 236 220 221 235 239 242 244 248 249 239 201 168 271 280 277 277 240 252 249 160 252 255 279 287 296 287 274 263 300 293 314 319 312 302 289 254 290 306 323 320 320 321 324
193 176 182 191 195 197 198 202 199 208 215 204 209 214 213 211 206 201 182 188 207 219 207 213 202 196 199 203 204 203 207 206 209 214 215 210 201 200 205 200 215 226 228 192 207 220 223 228 240 221 203 177 99 115 254 260 274 271 250 230 187 201 232 251 269 296 302 262 228 341 318 307 318 315 332 327 311 272 247 344 326 321 320 319 321